[[{"header":{"parameterUnit":"m.s-1","parameterCategory":2,"la1":30.2991,"la2":30.254,"lo1":-89.0895,"lo2":-89.0444,"dy":0.0017,"dx":0.0017,"nx":28,"ny":28,"refTime":"2025-08-08T03:00:00:Z","depth":"0","parameterNumber":2,"parameterNumberName":"U-component_of_CURRENTS"},"data":[0,0,0,0,0,0,0,0,0,0,0,0,0,0,0,0,0,0,0,0,0,0,0,0,0,0,0,0,0,0,0,0,0,0,0,0,0,0,0,0,0,0,0,0,0,0,0,0,0,0,0,0,0,0,0,0,0,0,0.3547,0.3547,0,0.3527,0.3527,0.3526,0.3484,0.3483,0.3483,0.3482,0.3441,0.344,0.344,0,0,0,0,0,0,0,0,0,0,0,0,0,0.3578,0.3577,0.3547,0.3547,0.3547,0.3527,0.3527,0.3526,0.3484,0.3483,0.3482,0.3482,0.3441,0.344,0.344,0,0,0,0,0,0,0,0,0,0,0,0,0,0.3559,0.3577,0.3547,0.3526,0.3524,0.3527,0.3527,0.3526,0.3484,0.3483,0.3482,0.3481,0.3441,0.344,0.344,0.3452,0,0,0.3437,0.3437,0,0,0,0,0,0,0,0,0.356,0.3557,0.3529,0.3527,0.3525,0.351,0.3522,0.3501,0.3484,0.3496,0.3482,0.3481,0.3464,0.3462,0.3456,0.345,0.3448,0.3437,0.3437,0.3436,0.3436,0,0,0,0,0,0,0,0.3561,0.3558,0.3536,0.3529,0.3527,0.3527,0.3523,0.3518,0.3483,0.3495,0.3493,0.3495,0.3463,0.3457,0.3455,0.3448,0.3437,0.3436,0.3436,0.3435,0.3483,0.3485,0,0,0,0,0,0,0.3569,0.3559,0.3537,0.3536,0.3544,0.3528,0.3523,0.3513,0.3483,0.3479,0.3496,0.3493,0.3459,0.3456,0.3453,0.3488,0.3436,0.3435,0.3435,0.3482,0.3484,0.3486,0,0,0,0,0,0,0.3569,0.3567,0.3538,0.355,0.3547,0.3528,0.3518,0.3513,0.3511,0.3485,0.3479,0.35,0.3458,0.3454,0.3459,0.3486,0.3435,0.3434,0.348,0.3482,0.3485,0.3545,0,0,0,0,0,0,0.357,0.3567,0.3566,0.355,0.3547,0.3547,0.3519,0.3514,0.3516,0.3512,0.3486,0.3481,0.3457,0.3461,0.3459,0.3483,0.3434,0.3477,0.3481,0.3484,0.3541,0.3549,0.3557,0,0,0,0,0,0.3571,0.3571,0.3565,0.3563,0.3544,0.3548,0.3546,0.3528,0.3517,0.3522,0.3508,0.3482,0.348,0.3461,0.3458,0.3484,0.3476,0.348,0.3484,0.3537,0.3548,0.3556,0,0,0,0,0,0,0.3586,0.3567,0.356,0.3554,0.3557,0.3542,0.3546,0.3538,0.3531,0.3527,0.3499,0.3493,0.3512,0.3494,0.3474,0.351,0.3477,0.348,0.3519,0.3528,0.3536,0.3554,0.3433,0,0,0,0,0,0.3591,0.3582,0.3574,0.3573,0.3574,0.3564,0.3565,0.3557,0.3549,0.3544,0.3528,0.352,0.3527,0.3523,0.3522,0.3536,0.3564,0.3555,0.3563,0.3569,0.3584,0.3666,0.3684,0.3499,0.3499,0.3499,0,0,0.3596,0.3587,0.3581,0.3576,0.3573,0.3583,0.3561,0.3568,0.3578,0.3543,0.355,0.3548,0.354,0.3558,0.3565,0.3543,0.3637,0.3574,0.358,0.3591,0.3672,0.3691,0.3707,0.3501,0.3501,0.35,0,0,0.3606,0.3596,0.3594,0.36,0.3605,0.3603,0.3611,0.3605,0.3602,0.3615,0.3601,0.3621,0.3611,0.362,0.3622,0.3678,0.3681,0.3674,0.372,0.38,0.3816,0.3831,0.3889,0.3908,0.3672,0.3672,0.3672,0,0.3617,0.3607,0.3599,0.3609,0.3616,0.3616,0.3628,0.3634,0.3633,0.3648,0.3625,0.3661,0.3647,0.3694,0.3707,0.3697,0.3736,0.368,0.3812,0.3826,0.384,0.3897,0.3917,0.3675,0.3675,0.3674,0.3674,0,0.3625,0.3626,0.3631,0.3637,0.365,0.3661,0.3673,0.3691,0.3692,0.3703,0.3749,0.3743,0.3771,0.3769,0.3749,0.3839,0.3834,0.3817,0.3787,0.3863,0.3917,0.3937,0.368,0.3679,0.3678,0.3677,0,0,0.3621,0.363,0.3632,0.3636,0.3663,0.3669,0.371,0.3743,0.3783,0.3792,0.3854,0.3862,0.3876,0.3882,0.3873,0.3927,0.4049,0.3913,0.3915,0.3971,0.4225,0.4146,0.416,0.406,0.4064,0.4067,0.4223,0,0.3628,0.3634,0.3648,0.3669,0.3672,0.3704,0.3743,0.3783,0.3821,0.3886,0.3914,0.3967,0.3915,0.3944,0.3994,0.405,0.4106,0.4008,0.4143,0.4147,0.4068,0.4182,0.4012,0.4131,0.4242,0.4246,0.4248,0,0.3623,0.3628,0.3635,0.3672,0.3681,0.3702,0.3773,0.3813,0.3917,0.3958,0.4031,0.4068,0.416,0.4104,0.424,0.4184,0.4211,0.4238,0.4244,0.4165,0.4106,0.4074,0.4163,0.4056,0.4279,0.4277,0.4274,0,0.3586,0.3619,0.3616,0.3626,0.3674,0.3697,0.3735,0.3828,0.3891,0.4022,0.4111,0.42,0.428,0.434,0.4385,0.4338,0.4536,0.4478,0.4428,0.4422,0.4301,0.4277,0.4302,0.4579,0.4578,0.4578,0.4578,0,0.3565,0.3563,0.3595,0.3589,0.3618,0.367,0.3738,0.3799,0.3938,0.4047,0.4146,0.4256,0.435,0.4462,0.4467,0.4525,0.4608,0.4471,0.4474,0.4315,0.4291,0.4208,0.4146,0.4584,0.4583,0.4581,0.458,0,0.3497,0.352,0.3523,0.3571,0.359,0.3607,0.3726,0.3794,0.3936,0.4098,0.4159,0.4349,0.4496,0.457,0.4691,0.4638,0.456,0.4674,0.4469,0.4443,0.425,0.4197,0.4098,0.3977,0.4656,0.4655,0.4655,0,0.3444,0.344,0.3486,0.3499,0.3512,0.3567,0.362,0.3761,0.3856,0.4141,0.422,0.4435,0.4553,0.4706,0.4662,0.4688,0.455,0.4531,0.4393,0.4249,0.4194,0.403,0.3923,0.4265,0.4261,0.4258,0.4255,0,0.3359,0.3383,0.3392,0.3429,0.3467,0.3527,0.3618,0.3696,0.3902,0.4054,0.4264,0.4393,0.4555,0.4508,0.4541,0.4521,0.4306,0.4465,0.4386,0.3956,0.3712,0.3592,0.4146,0.4227,0.423,0.4232,0.4234,0.4235,0.3294,0.3289,0.3325,0.3349,0.3406,0.347,0.3488,0.3625,0.3763,0.394,0.4144,0.4235,0.4331,0.4342,0.4309,0.4135,0.4102,0.399,0.3963,0.3831,0.3621,0.4101,0.4132,0.4134,0.4136,0.4137,0.4139,0,0.3206,0.3222,0.3248,0.3282,0.3309,0.3373,0.3473,0.3478,0.3576,0.3735,0.3863,0.3909,0.3887,0.3927,0.3831,0.3663,0.349,0.3559,0.3301,0.324,0.3749,0.3637,0.3475,0.3475,0.3475,0.3475,0.3475,0.3475,0.3163,0.315,0.3166,0.3171,0.3198,0.319,0.3213,0.3242,0.3306,0.3316,0.3302,0.337,0.355,0.3582,0.343,0.3341,0.3081,0.292,0.2925,0.33,0.3338,0.3373,0.3256,0.3016,0.3015,0.2279,0.2274,0.227]},{"header":{"parameterUnit":"m.s-1","parameterCategory":2,"la1":30.2991,"la2":30.254,"lo1":-89.0895,"lo2":-89.0444,"dy":0.0017,"dx":0.0017,"nx":28,"ny":28,"refTime":"2025-08-08T03:00:00:Z","depth":"0","parameterNumber":3,"parameterNumberName":"V-component_of_CURRENTS"},"data":[0,0,0,0,0,0,0,0,0,0,0,0,0,0,0,0,0,0,0,0,0,0,0,0,0,0,0,0,0,0,0,0,0,0,0,0,0,0,0,0,0,0,0,0,0,0,0,0,0,0,0,0,0,0,0,0,0,0,0.0278,0.0278,0,0.0234,0.0233,0.0232,0.0199,0.0198,0.0198,0.0198,0.0126,0.0125,0.0123,0,0,0,0,0,0,0,0,0,0,0,0,0,0.0272,0.0273,0.0278,0.0278,0.0278,0.0234,0.0233,0.0232,0.0199,0.0198,0.0198,0.0198,0.0127,0.0125,0.0123,0,0,0,0,0,0,0,0,0,0,0,0,0,0.0254,0.0273,0.0278,0.0257,0.0255,0.0234,0.0233,0.0232,0.0199,0.0198,0.0198,0.0198,0.0128,0.0125,0.0122,0.011,0,0,0.0114,0.0113,0,0,0,0,0,0,0,0,0.0256,0.0255,0.026,0.0258,0.0256,0.0223,0.0205,0.019,0.0199,0.0218,0.0198,0.0198,0.0158,0.0153,0.0142,0.0106,0.0103,0.0114,0.0112,0.0111,0.011,0,0,0,0,0,0,0,0.0257,0.0256,0.0259,0.026,0.0257,0.0228,0.0226,0.0201,0.0187,0.0216,0.0214,0.0212,0.0156,0.0145,0.014,0.0102,0.0114,0.0112,0.011,0.0109,0.0061,0.0061,0,0,0,0,0,0,0.027,0.0258,0.026,0.0257,0.0257,0.0229,0.0226,0.0232,0.0188,0.0182,0.0213,0.0211,0.015,0.0143,0.0138,0.0142,0.0111,0.0109,0.0107,0.0061,0.0061,0.0061,0,0,0,0,0,0,0.027,0.0271,0.0262,0.0257,0.0254,0.023,0.0237,0.0232,0.0225,0.0186,0.0179,0.0212,0.0149,0.0141,0.0125,0.0138,0.0107,0.0105,0.006,0.0061,0.0061,0.0136,0,0,0,0,0,0,0.027,0.0272,0.0278,0.0259,0.0255,0.026,0.0237,0.0231,0.0224,0.0222,0.0183,0.0176,0.0148,0.013,0.0123,0.0133,0.0103,0.006,0.006,0.0061,0.0133,0.0139,0.0144,0,0,0,0,0,0.027,0.0286,0.0279,0.0279,0.0266,0.0261,0.0257,0.0237,0.0225,0.0228,0.0202,0.0177,0.0128,0.0128,0.0119,0.013,0.0059,0.006,0.0061,0.013,0.0137,0.0144,0,0,0,0,0,0,0.0285,0.0284,0.0275,0.0289,0.028,0.0257,0.0257,0.0243,0.0224,0.022,0.0182,0.0174,0.0162,0.0135,0.0136,0.0117,0.0089,0.0088,0.0145,0.0151,0.0156,0.0181,0.0101,0,0,0,0,0,0.0292,0.0304,0.0294,0.0303,0.0302,0.0279,0.0274,0.0262,0.0244,0.0235,0.0209,0.018,0.0157,0.0147,0.012,0.0113,0.0093,0.0113,0.0118,0.0123,0.0137,0.0118,0.0124,0.0064,0.0064,0.0064,0,0,0.0298,0.03,0.0305,0.0307,0.0296,0.0308,0.0275,0.0274,0.0283,0.023,0.0231,0.0196,0.0158,0.015,0.0142,0.0131,0.0129,0.0124,0.0129,0.014,0.012,0.0126,0.0131,0.0064,0.0064,0.0064,0,0,0.0324,0.032,0.0342,0.0342,0.0337,0.0327,0.0332,0.0315,0.0306,0.0299,0.0264,0.0243,0.0207,0.0188,0.0173,0.0192,0.0156,0.0177,0.0229,0.0212,0.0217,0.0221,0.0206,0.0208,0.0184,0.0184,0.0184,0,0.0332,0.0362,0.0345,0.0368,0.0377,0.0343,0.0371,0.0357,0.0336,0.0337,0.031,0.0267,0.0229,0.0229,0.0231,0.0206,0.019,0.021,0.0221,0.0224,0.0227,0.0211,0.0212,0.0188,0.0187,0.0187,0.0187,0,0.0379,0.04,0.0412,0.0435,0.0439,0.0455,0.0443,0.0439,0.042,0.0409,0.0398,0.0345,0.0323,0.0303,0.0271,0.0277,0.0256,0.0228,0.0209,0.0238,0.0218,0.0219,0.0193,0.0192,0.0191,0.019,0,0,0.0406,0.0442,0.0446,0.0474,0.048,0.0494,0.0505,0.0516,0.0539,0.0496,0.0524,0.0464,0.0432,0.0412,0.0366,0.0348,0.0346,0.0303,0.03,0.0298,0.0311,0.0286,0.0283,0.032,0.0321,0.0321,0.0289,0,0.045,0.0514,0.0516,0.0573,0.0608,0.0588,0.061,0.0611,0.0601,0.0616,0.0558,0.0563,0.0475,0.0474,0.0435,0.038,0.035,0.0358,0.0275,0.0273,0.0254,0.0284,0.0305,0.0278,0.029,0.029,0.029,0,0.0501,0.0541,0.0608,0.0661,0.0675,0.0698,0.0736,0.0755,0.0756,0.075,0.0729,0.0689,0.0658,0.0579,0.0485,0.0494,0.0406,0.035,0.0347,0.03,0.0248,0.0249,0.0278,0.0128,0.029,0.029,0.029,0,0.0544,0.0607,0.0667,0.0685,0.0733,0.0755,0.0781,0.0796,0.0841,0.0848,0.0889,0.0815,0.0811,0.0692,0.0555,0.0526,0.0456,0.0399,0.0289,0.0286,0.0277,0.0273,0.0162,0.0325,0.0325,0.0325,0.0325,0,0.0598,0.0646,0.0693,0.0728,0.0807,0.0817,0.09,0.0908,0.0958,0.1052,0.0969,0.103,0.084,0.0772,0.0614,0.0466,0.0494,0.0311,0.0281,0.0302,0.0301,0.0146,0.0039,0.0324,0.0324,0.0324,0.0324,0,0.0638,0.0665,0.0744,0.0806,0.083,0.089,0.0989,0.1059,0.1092,0.1213,0.1233,0.12,0.1119,0.0919,0.0744,0.0567,0.0323,0.0348,0.0386,0.036,0.01,-0.0003,-0.0161,-0.0233,0.0225,0.0224,0.0223,0,0.0666,0.0711,0.0803,0.086,0.0891,0.0982,0.1056,0.1115,0.1209,0.1342,0.1418,0.1378,0.139,0.111,0.0787,0.0506,0.0323,0.0317,0.025,0.0102,-0.0036,-0.0112,-0.0166,0.0267,0.0267,0.0267,0.0267,0,0.0725,0.0752,0.0817,0.0936,0.1021,0.1137,0.125,0.1346,0.1456,0.1588,0.1746,0.1778,0.1512,0.1245,0.0822,0.0613,0.0205,0.0302,0.0144,-0.0013,-0.0097,-0.0183,0.0269,0.0265,0.0265,0.0266,0.0266,0.0266,0.0765,0.0822,0.0908,0.1022,0.1132,0.1282,0.14,0.1557,0.1751,0.1973,0.1981,0.2081,0.1655,0.1096,0.0781,0.0208,0.0182,0.0036,-0.0076,-0.0136,-0.0215,0.0232,0.0193,0.0192,0.0192,0.0192,0.0192,0,0.0821,0.0887,0.0994,0.1136,0.1272,0.1319,0.1529,0.1679,0.1943,0.2144,0.2298,0.215,0.1643,0.1088,0.0308,-0.0085,-0.0232,-0.0302,-0.0402,-0.0439,-0.0033,-0.004,-0.0124,-0.0124,-0.0124,-0.0124,-0.0124,-0.0124,0.0852,0.0955,0.1011,0.1227,0.1338,0.1538,0.1671,0.1915,0.21,0.2366,0.244,0.2447,0.2003,0.0659,-0.0221,-0.042,-0.0698,-0.0773,-0.0909,-0.0634,-0.061,-0.0588,-0.0618,-0.0822,-0.0823,-0.124,-0.1244,-0.1248]}],[{"header":{"parameterUnit":"m.s-1","parameterCategory":2,"la1":30.2991,"la2":30.254,"lo1":-89.0895,"lo2":-89.0444,"dy":0.0017,"dx":0.0017,"nx":28,"ny":28,"refTime":"2025-08-08T03:00:00:Z","depth":"2","parameterNumber":2,"parameterNumberName":"U-component_of_CURRENTS"},"data":[0,0,0,0,0,0,0,0,0,0,0,0,0,0,0,0,0,0,0,0,0,0,0,0,0,0,0,0,0,0,0,0,0,0,0,0,0,0,0,0,0,0,0,0,0,0,0,0,0,0,0,0,0,0,0,0,0,0,0.2931,0.2931,0,0.2935,0.2935,0.2935,0.2919,0.2919,0.2919,0.2919,0.2908,0.2908,0.2908,0,0,0,0,0,0,0,0,0,0,0,0,0,0.2913,0.2913,0.2931,0.2931,0.2931,0.2935,0.2935,0.2935,0.2919,0.2919,0.2919,0.2919,0.2908,0.2908,0.2908,0,0,0,0,0,0,0,0,0,0,0,0,0,0.2917,0.2913,0.293,0.2926,0.2926,0.2935,0.2935,0.2935,0.292,0.2919,0.2919,0.2919,0.2908,0.2908,0.2908,0.2913,0,0,0.2907,0.2907,0,0,0,0,0,0,0,0,0.2917,0.2917,0.2926,0.2926,0.2926,0.2929,0.2925,0.2928,0.292,0.2919,0.2919,0.2918,0.2916,0.2915,0.2913,0.2913,0.2912,0.2907,0.2907,0.2907,0.2907,0,0,0,0,0,0,0,0.2916,0.2917,0.2929,0.2927,0.2927,0.2926,0.2926,0.2926,0.2916,0.2919,0.2919,0.2924,0.2915,0.2913,0.2912,0.2912,0.2907,0.2907,0.2907,0.2907,0.2968,0.297,0,0,0,0,0,0,0.2922,0.2917,0.2929,0.293,0.2924,0.2927,0.2926,0.2926,0.2917,0.2916,0.2924,0.2923,0.2913,0.2912,0.2912,0.2959,0.2907,0.2907,0.2907,0.2966,0.2968,0.297,0,0,0,0,0,0,0.2921,0.2923,0.2929,0.2926,0.2927,0.2928,0.2927,0.2926,0.2937,0.2921,0.292,0.2937,0.2913,0.2912,0.2928,0.2957,0.2907,0.2907,0.2964,0.2967,0.2969,0.3026,0,0,0,0,0,0,0.2921,0.2922,0.2929,0.2926,0.2928,0.2945,0.2928,0.2927,0.2941,0.294,0.2932,0.293,0.2913,0.2929,0.2928,0.2955,0.2907,0.2962,0.2966,0.2969,0.3022,0.303,0.3037,0,0,0,0,0,0.292,0.2927,0.2929,0.2932,0.2935,0.2946,0.2947,0.2944,0.2942,0.2951,0.295,0.293,0.2949,0.293,0.2929,0.2957,0.2961,0.2965,0.2968,0.3019,0.3029,0.3037,0,0,0,0,0,0,0.2921,0.2926,0.2929,0.2937,0.2948,0.2945,0.2955,0.2956,0.2962,0.2964,0.2947,0.2945,0.2973,0.296,0.294,0.2986,0.2954,0.2958,0.2993,0.3002,0.301,0.3021,0.2907,0,0,0,0,0,0.2927,0.2934,0.2941,0.295,0.2958,0.2961,0.2968,0.297,0.2973,0.2976,0.2972,0.2975,0.2987,0.299,0.2995,0.3015,0.3031,0.3036,0.3044,0.305,0.306,0.3122,0.3136,0.2983,0.2983,0.2983,0,0,0.2929,0.2935,0.2938,0.2952,0.2959,0.2975,0.2964,0.2981,0.2998,0.2974,0.2997,0.3003,0.3001,0.3026,0.3038,0.3018,0.3102,0.3055,0.306,0.3067,0.3128,0.3142,0.3156,0.2986,0.2985,0.2985,0,0,0.2937,0.2945,0.2955,0.2969,0.299,0.2995,0.3006,0.3017,0.3024,0.3049,0.3043,0.307,0.3075,0.3087,0.3091,0.3146,0.3144,0.3149,0.319,0.325,0.3263,0.3275,0.3314,0.3329,0.3148,0.3148,0.3148,0,0.2942,0.2952,0.2961,0.298,0.2993,0.3008,0.3025,0.3041,0.3057,0.3077,0.3064,0.3113,0.3107,0.3154,0.3171,0.3164,0.3192,0.3152,0.3261,0.3272,0.3284,0.332,0.3336,0.3151,0.3151,0.3151,0.315,0,0.2955,0.2971,0.2981,0.3007,0.3026,0.3044,0.3069,0.3096,0.3111,0.313,0.3184,0.3188,0.3221,0.3225,0.321,0.3288,0.3281,0.3266,0.3236,0.3302,0.3337,0.3352,0.3156,0.3155,0.3154,0.3153,0,0,0.2938,0.298,0.2984,0.2999,0.3041,0.3053,0.31,0.3142,0.3183,0.3212,0.3267,0.3294,0.3314,0.3322,0.332,0.3362,0.3456,0.3349,0.335,0.3385,0.3586,0.3516,0.3525,0.3466,0.3469,0.3472,0.3578,0,0.2943,0.2973,0.2998,0.3032,0.3046,0.3087,0.3129,0.3177,0.322,0.3281,0.3317,0.3366,0.3346,0.337,0.3417,0.3453,0.35,0.3428,0.3518,0.3521,0.3449,0.3542,0.3236,0.33,0.3592,0.3595,0.3597,0,0.2938,0.296,0.2988,0.3041,0.3053,0.3082,0.3156,0.3198,0.3296,0.3339,0.3412,0.3442,0.3522,0.3487,0.3601,0.356,0.3584,0.36,0.3605,0.3531,0.348,0.3282,0.3317,0.3622,0.362,0.3618,0.3616,0,0.2896,0.2948,0.2967,0.2984,0.3051,0.308,0.3123,0.3215,0.3268,0.3385,0.3446,0.3539,0.3599,0.3656,0.3698,0.3664,0.3814,0.3769,0.3728,0.3722,0.3474,0.3442,0.3853,0.3853,0.3853,0.3853,0.3852,0,0.2874,0.2888,0.295,0.2957,0.2997,0.3057,0.3121,0.3188,0.3301,0.3377,0.3474,0.3549,0.3649,0.3735,0.3751,0.3801,0.3868,0.3761,0.3758,0.3485,0.3453,0.3734,0.3719,0.3857,0.3856,0.3855,0.3854,0,0.2813,0.2855,0.2878,0.2948,0.2973,0.2999,0.3105,0.3156,0.3281,0.3388,0.3431,0.3594,0.3714,0.3794,0.3899,0.3869,0.3912,0.3904,0.357,0.3527,0.3762,0.3749,0.3874,0.3873,0.3872,0.3871,0.387,0,0.2779,0.2786,0.2853,0.2868,0.2896,0.2954,0.2997,0.3127,0.3187,0.3397,0.3438,0.3612,0.3696,0.3841,0.3826,0.3862,0.3928,0.3589,0.3464,0.3786,0.3772,0.376,0.3748,0.3156,0.3149,0.3144,0.3139,0,0.2715,0.2743,0.2764,0.28,0.2836,0.2877,0.2949,0.2993,0.3153,0.3248,0.3379,0.3469,0.3628,0.3538,0.3607,0.3575,0.3558,0.3482,0.3927,0.3201,0.3118,0.31,0.3111,0.3092,0.3096,0.31,0.3103,0.3104,0.2663,0.2661,0.2696,0.2716,0.2755,0.277,0.2759,0.2848,0.2918,0.3019,0.3204,0.3241,0.3312,0.326,0.3176,0.3106,0.3347,0.318,0.3192,0.3211,0.3112,0.3033,0.2971,0.2975,0.2978,0.2981,0.2984,0,0.2585,0.2594,0.2611,0.2613,0.2593,0.2665,0.2698,0.2653,0.2661,0.2807,0.289,0.2712,0.2682,0.2746,0.2565,0.2575,0.2504,0.2468,0.234,0.2391,0.2437,0.2292,0.1937,0.1933,0.193,0.1926,0,0,0.2545,0.2519,0.252,0.2445,0.2448,0.2376,0.2362,0.2325,0.2363,0.2346,0.2353,0.2588,0.2683,0.2282,0.2237,0.205,0.2196,0.1967,0.2815,0.2718,0.2758,0.2867,0.2708,0,0,0,0,0]},{"header":{"parameterUnit":"m.s-1","parameterCategory":2,"la1":30.2991,"la2":30.254,"lo1":-89.0895,"lo2":-89.0444,"dy":0.0017,"dx":0.0017,"nx":28,"ny":28,"refTime":"2025-08-08T03:00:00:Z","depth":"2","parameterNumber":3,"parameterNumberName":"V-component_of_CURRENTS"},"data":[0,0,0,0,0,0,0,0,0,0,0,0,0,0,0,0,0,0,0,0,0,0,0,0,0,0,0,0,0,0,0,0,0,0,0,0,0,0,0,0,0,0,0,0,0,0,0,0,0,0,0,0,0,0,0,0,0,0,0.0192,0.0191,0,0.015,0.015,0.0149,0.012,0.012,0.012,0.012,0.0055,0.0054,0.0052,0,0,0,0,0,0,0,0,0,0,0,0,0,0.0188,0.0189,0.0192,0.0191,0.0191,0.0151,0.015,0.0149,0.012,0.012,0.012,0.012,0.0056,0.0054,0.0052,0,0,0,0,0,0,0,0,0,0,0,0,0,0.0172,0.0189,0.0192,0.0173,0.0171,0.0151,0.015,0.0149,0.012,0.012,0.012,0.012,0.0057,0.0054,0.0052,0.004,0,0,0.0044,0.0043,0,0,0,0,0,0,0,0,0.0173,0.0172,0.0176,0.0174,0.0172,0.0142,0.0125,0.0112,0.0121,0.0138,0.012,0.012,0.0083,0.0078,0.007,0.0037,0.0034,0.0044,0.0043,0.0042,0.0041,0,0,0,0,0,0,0,0.0174,0.0173,0.0174,0.0176,0.0173,0.0147,0.0144,0.0122,0.0111,0.0137,0.0135,0.0132,0.0082,0.0072,0.0068,0.0033,0.0044,0.0042,0.0041,0.004,-0.0004,-0.0004,0,0,0,0,0,0,0.0185,0.0175,0.0175,0.0173,0.0173,0.0147,0.0145,0.015,0.0111,0.0106,0.0132,0.0131,0.0076,0.0071,0.0065,0.0068,0.0042,0.0039,0.0038,-0.0005,-0.0004,-0.0004,0,0,0,0,0,0,0.0185,0.0186,0.0177,0.0173,0.017,0.0148,0.0154,0.015,0.0144,0.0109,0.0102,0.0132,0.0076,0.0069,0.0054,0.0065,0.0038,0.0036,-0.0005,-0.0004,-0.0004,0.0062,0,0,0,0,0,0,0.0186,0.0186,0.0193,0.0174,0.0171,0.0175,0.0154,0.0149,0.0143,0.0141,0.0106,0.01,0.0075,0.0058,0.0052,0.0061,0.0034,-0.0005,-0.0005,-0.0004,0.0059,0.0064,0.0069,0,0,0,0,0,0.0186,0.02,0.0194,0.0193,0.0182,0.0176,0.0172,0.0153,0.0143,0.0146,0.0123,0.0101,0.0057,0.0057,0.0049,0.0058,-0.0006,-0.0005,-0.0004,0.0057,0.0063,0.0069,0,0,0,0,0,0,0.0199,0.0198,0.019,0.0203,0.0193,0.0172,0.0171,0.0159,0.0142,0.0139,0.0105,0.0098,0.0087,0.0063,0.0063,0.0046,0.0021,0.0021,0.0071,0.0076,0.0081,0.0101,0.0032,0,0,0,0,0,0.0207,0.0218,0.0207,0.0215,0.0214,0.0193,0.0187,0.0177,0.016,0.0153,0.0129,0.0103,0.0083,0.0073,0.0049,0.0042,0.0018,0.0042,0.0046,0.0051,0.0062,0.0035,0.0039,-0.0002,-0.0002,-0.0002,0,0,0.0212,0.0213,0.0218,0.0219,0.0208,0.0219,0.0189,0.0187,0.0195,0.0148,0.0148,0.0117,0.0084,0.0075,0.0068,0.0058,0.0049,0.0052,0.0056,0.0064,0.0036,0.004,0.0044,-0.0001,-0.0001,-0.0001,0,0,0.0235,0.0233,0.0252,0.0251,0.0245,0.0236,0.024,0.0224,0.0215,0.021,0.0178,0.0159,0.0127,0.0109,0.0094,0.0111,0.0073,0.0099,0.0143,0.0118,0.0121,0.0124,0.0098,0.0098,0.0104,0.0104,0.0105,0,0.0242,0.0269,0.0254,0.0273,0.0281,0.025,0.0274,0.0261,0.0242,0.0242,0.0219,0.0179,0.0145,0.0142,0.0145,0.0123,0.0101,0.0126,0.0125,0.0127,0.0129,0.0102,0.0101,0.0108,0.0107,0.0107,0.0107,0,0.0283,0.0302,0.0313,0.0333,0.0336,0.035,0.0338,0.0334,0.0317,0.0306,0.0294,0.0246,0.0226,0.0207,0.018,0.0179,0.0157,0.0133,0.0115,0.0137,0.0107,0.0105,0.0112,0.0111,0.011,0.0109,0,0,0.0308,0.0339,0.0343,0.0368,0.0372,0.0384,0.0393,0.0401,0.042,0.038,0.0399,0.0348,0.032,0.0302,0.0261,0.0236,0.0221,0.0195,0.0192,0.0178,0.0165,0.0139,0.0134,0.0196,0.0196,0.0196,0.0139,0,0.0347,0.0403,0.0404,0.0455,0.0486,0.0467,0.0486,0.0485,0.0474,0.0481,0.0425,0.0422,0.0357,0.035,0.0314,0.025,0.0219,0.0239,0.0138,0.0136,0.0116,0.0132,0.0148,0.0097,0.0137,0.0137,0.0136,0,0.0391,0.0427,0.0487,0.0533,0.0545,0.0565,0.0597,0.0613,0.0606,0.0599,0.0575,0.053,0.049,0.0428,0.0328,0.0344,0.0261,0.0202,0.0198,0.0152,0.0107,0.008,0.0091,0.0132,0.0132,0.0133,0.0133,0,0.0431,0.0486,0.054,0.0555,0.0598,0.0617,0.0639,0.0649,0.0687,0.0677,0.0698,0.0628,0.0611,0.0497,0.0362,0.0347,0.0249,0.021,0.0107,0.0104,0.0087,0.0083,0.0135,0.0135,0.0135,0.0135,0.0135,0,0.0479,0.0522,0.0564,0.0595,0.0666,0.0674,0.0747,0.0751,0.0788,0.0857,0.0768,0.0795,0.0628,0.0546,0.0402,0.0256,0.0275,0.0122,0.0091,0.011,0.0108,0.0113,0.0111,0.0133,0.0133,0.0134,0.0134,0,0.0516,0.054,0.061,0.0665,0.0687,0.0741,0.0828,0.089,0.0903,0.0988,0.099,0.0931,0.0826,0.0645,0.0471,0.0327,0.0175,0.0112,0.0145,0.0119,0.0034,0.0037,-0.0004,-0.0005,-0.0006,-0.0007,-0.0008,0,0.0542,0.0581,0.0664,0.0716,0.0744,0.0827,0.0895,0.0943,0.1023,0.1081,0.1133,0.1051,0.102,0.0743,0.0473,0.0219,0.0179,0.0053,0.0018,0.0048,0.0022,0.0026,0.0029,0.0019,0.0019,0.0018,0.0018,0,0.0595,0.0619,0.0678,0.0786,0.0865,0.0971,0.1071,0.1153,0.123,0.1296,0.1366,0.134,0.1081,0.0824,0.046,0.0282,0.0091,0.0036,0.0066,0.0053,0.0066,0.0041,0.0045,0.0015,0.0015,0.0015,0.0015,0.0015,0.0632,0.0683,0.076,0.0865,0.0965,0.1102,0.1202,0.1321,0.1455,0.1568,0.1537,0.1504,0.1199,0.0741,0.0417,0.0069,0.0089,-0.0043,-0.004,-0.0037,-0.0023,-0.0013,-0.0076,-0.0077,-0.0077,-0.0077,-0.0077,0,0.0684,0.0742,0.0838,0.0963,0.1083,0.1132,0.1314,0.1419,0.1586,0.1676,0.1728,0.144,0.1144,0.0786,0.0273,-0.0029,-0.0051,-0.0132,-0.0095,-0.0089,-0.0084,-0.0072,-0.0139,-0.014,-0.0141,-0.0142,0,0,0.0711,0.0804,0.0851,0.1038,0.1136,0.1307,0.142,0.1572,0.1673,0.176,0.1745,0.1695,0.1256,0.0874,0.0457,0.0157,0.0105,0.0096,0.0178,0.0277,0.0286,-0.0002,0.0027,0,0,0,0,0]}],[{"header":{"parameterUnit":"m.s-1","parameterCategory":2,"la1":30.2991,"la2":30.254,"lo1":-89.0895,"lo2":-89.0444,"dy":0.0017,"dx":0.0017,"nx":28,"ny":28,"refTime":"2025-08-08T03:00:00:Z","depth":"4","parameterNumber":2,"parameterNumberName":"U-component_of_CURRENTS"},"data":[0,0,0,0,0,0,0,0,0,0,0,0,0,0,0,0,0,0,0,0,0,0,0,0,0,0,0,0,0,0,0,0,0,0,0,0,0,0,0,0,0,0,0,0,0,0,0,0,0,0,0,0,0,0,0,0,0,0,0.1887,0.1887,0,0.1944,0.1944,0.1945,0.1996,0.1997,0.1997,0.1998,0.2068,0.2069,0.207,0,0,0,0,0,0,0,0,0,0,0,0,0,0.1811,0.1812,0.1887,0.1888,0.1889,0.1944,0.1944,0.1945,0.1996,0.1997,0.1998,0.1999,0.2068,0.2069,0.207,0,0,0,0,0,0,0,0,0,0,0,0,0,0.1851,0.1812,0.1886,0.1922,0.1926,0.1944,0.1944,0.1945,0.1995,0.1997,0.1998,0.1999,0.2067,0.2069,0.207,0.2055,0,0,0.2075,0.2076,0,0,0,0,0,0,0,0,0.1848,0.1853,0.1916,0.192,0.1925,0.1966,0.1943,0.1983,0.1995,0.1967,0.1998,0.2,0.2036,0.204,0.2044,0.2058,0.2061,0.2075,0.2076,0.2077,0.2077,0,0,0,0,0,0,0,0.1846,0.1851,0.1907,0.1917,0.1922,0.1932,0.1939,0.1951,0.1992,0.1969,0.1974,0.1984,0.2038,0.2042,0.2046,0.2062,0.2075,0.2077,0.2078,0.2078,0.219,0.2192,0,0,0,0,0,0,0.1843,0.1848,0.1905,0.1909,0.1892,0.1933,0.194,0.1949,0.1991,0.2,0.1982,0.1986,0.2039,0.2044,0.2049,0.2141,0.2077,0.2078,0.2079,0.2188,0.219,0.2192,0,0,0,0,0,0,0.1841,0.1847,0.1903,0.1882,0.189,0.1933,0.1943,0.195,0.1997,0.2002,0.201,0.2027,0.204,0.2047,0.2099,0.214,0.2079,0.2081,0.2185,0.2189,0.2191,0.2256,0,0,0,0,0,0,0.1839,0.1846,0.1872,0.1882,0.1891,0.1939,0.1942,0.195,0.2,0.2006,0.2042,0.2047,0.2042,0.2097,0.2101,0.2141,0.2082,0.2183,0.2187,0.219,0.2252,0.2261,0.2269,0,0,0,0,0,0.1836,0.1856,0.1873,0.1881,0.1918,0.194,0.1946,0.1979,0.2001,0.2025,0.2057,0.2049,0.2124,0.21,0.2104,0.2146,0.2181,0.2186,0.219,0.2248,0.2259,0.2269,0,0,0,0,0,0,0.1836,0.1864,0.1882,0.1912,0.1939,0.1951,0.1983,0.2002,0.2045,0.2066,0.207,0.2077,0.214,0.2135,0.2108,0.219,0.2153,0.2158,0.2195,0.2206,0.2215,0.2217,0.2083,0,0,0,0,0,0.1848,0.1876,0.1898,0.1928,0.1945,0.1973,0.1995,0.2018,0.2046,0.2069,0.2095,0.2125,0.2153,0.2175,0.2195,0.2236,0.2241,0.2269,0.2277,0.2285,0.2291,0.2339,0.2353,0.2207,0.2207,0.2207,0,0,0.1857,0.1878,0.1896,0.1932,0.1958,0.1986,0.1991,0.2036,0.2069,0.2068,0.2137,0.216,0.2172,0.2222,0.2249,0.2229,0.233,0.229,0.2297,0.2299,0.2345,0.236,0.2372,0.221,0.221,0.2209,0,0,0.1874,0.1911,0.1936,0.1963,0.2011,0.2025,0.2048,0.2086,0.212,0.2176,0.219,0.2241,0.2282,0.2299,0.231,0.238,0.2377,0.2395,0.2441,0.2489,0.2501,0.2511,0.2538,0.255,0.2398,0.2398,0.2399,0,0.1891,0.192,0.1949,0.1978,0.2007,0.2047,0.2079,0.2113,0.2168,0.2203,0.2213,0.2302,0.2315,0.2372,0.24,0.2401,0.2422,0.2397,0.25,0.251,0.252,0.2544,0.2557,0.2402,0.2402,0.2401,0.2401,0,0.1911,0.1953,0.1973,0.2023,0.2057,0.2094,0.2137,0.2191,0.224,0.2274,0.236,0.2385,0.2439,0.2454,0.2449,0.253,0.2521,0.2505,0.2469,0.2539,0.256,0.2572,0.2407,0.2406,0.2405,0.2404,0,0,0.1893,0.1972,0.1984,0.2017,0.2087,0.211,0.218,0.2244,0.2301,0.2368,0.2437,0.2497,0.2531,0.2547,0.2558,0.2596,0.2684,0.2589,0.259,0.2609,0.2787,0.2611,0.2607,0.2695,0.2697,0.2699,0.2774,0,0.1904,0.1961,0.2002,0.2066,0.2096,0.2161,0.2218,0.2289,0.2355,0.2434,0.2488,0.256,0.256,0.2601,0.2646,0.2677,0.272,0.2664,0.2722,0.2724,0.2553,0.2616,0.2707,0.2783,0.2786,0.2788,0.2789,0,0.1899,0.1942,0.2004,0.2089,0.2111,0.2162,0.2266,0.2324,0.2436,0.2496,0.2584,0.2628,0.2715,0.2697,0.2799,0.277,0.2793,0.2805,0.2808,0.2627,0.2569,0.27,0.2811,0.2809,0.2808,0.2806,0.2805,0,0.1849,0.1938,0.1991,0.202,0.2123,0.2178,0.2241,0.2352,0.2413,0.2546,0.2607,0.2712,0.2778,0.2831,0.2877,0.2855,0.2969,0.2934,0.2795,0.2783,0.289,0.2878,0.3006,0.3005,0.3005,0.3005,0.3005,0,0.1817,0.1864,0.1981,0.2008,0.2082,0.2164,0.2257,0.2339,0.2461,0.2526,0.2643,0.2703,0.2821,0.2893,0.2913,0.2892,0.3008,0.2811,0.2793,0.2915,0.2905,0.2898,0.2885,0.3008,0.3007,0.3007,0.3006,0,0.1746,0.1825,0.1891,0.2015,0.2059,0.2114,0.2255,0.2308,0.2447,0.2536,0.2584,0.2736,0.2823,0.2907,0.2997,0.292,0.2925,0.289,0.3025,0.3013,0.2696,0.2686,0.2725,0.272,0.2715,0.2711,0.2708,0,0.1708,0.174,0.188,0.192,0.1983,0.2082,0.2137,0.2286,0.2335,0.2524,0.2542,0.2693,0.2771,0.276,0.2866,0.2891,0.286,0.2835,0.2748,0.269,0.267,0.2667,0.2663,0.2701,0.2699,0.2698,0.2697,0,0.1635,0.1707,0.1762,0.1845,0.1915,0.1974,0.2066,0.2089,0.2241,0.2394,0.2441,0.2489,0.2582,0.2648,0.2695,0.2706,0.2829,0.2785,0.2793,0.2711,0.266,0.2645,0.2646,0.2681,0.2683,0.2684,0.2685,0,0.1587,0.1605,0.1689,0.1743,0.182,0.1826,0.1895,0.1945,0.2018,0.2214,0.2232,0.2394,0.2552,0.2555,0.2599,0.2597,0.2548,0.2446,0.2471,0.249,0.2378,0.2277,0.217,0,0,0,0,0,0.1525,0.1528,0.1573,0.1609,0.1673,0.1719,0.1821,0.1891,0.204,0.2011,0.2113,0.2186,0.2251,0.235,0.2302,0.2497,0.256,0.2428,0.2454,0.259,0.2609,0.2499,0,0,0,0,0,0,0.1479,0.1523,0.1529,0.1481,0.1481,0.1526,0.1587,0.1689,0.1684,0.1856,0.1913,0.2048,0.2158,0.226,0.226,0.2287,0.2255,0.254,0.2534,0.258,0.2597,0.2612,0.2505,0,0,0,0,0]},{"header":{"parameterUnit":"m.s-1","parameterCategory":2,"la1":30.2991,"la2":30.254,"lo1":-89.0895,"lo2":-89.0444,"dy":0.0017,"dx":0.0017,"nx":28,"ny":28,"refTime":"2025-08-08T03:00:00:Z","depth":"4","parameterNumber":3,"parameterNumberName":"V-component_of_CURRENTS"},"data":[0,0,0,0,0,0,0,0,0,0,0,0,0,0,0,0,0,0,0,0,0,0,0,0,0,0,0,0,0,0,0,0,0,0,0,0,0,0,0,0,0,0,0,0,0,0,0,0,0,0,0,0,0,0,0,0,0,0,0.0143,0.0143,0,0.0115,0.0115,0.0115,0.0097,0.0097,0.0097,0.0097,0.005,0.0049,0.0047,0,0,0,0,0,0,0,0,0,0,0,0,0,0.0139,0.014,0.0143,0.0142,0.0142,0.0115,0.0115,0.0114,0.0097,0.0097,0.0097,0.0097,0.005,0.0049,0.0047,0,0,0,0,0,0,0,0,0,0,0,0,0,0.0129,0.014,0.0143,0.0131,0.0129,0.0115,0.0115,0.0114,0.0097,0.0097,0.0097,0.0097,0.0051,0.0049,0.0047,0.0037,0,0,0.0042,0.0041,0,0,0,0,0,0,0,0,0.0129,0.0129,0.0133,0.0132,0.013,0.011,0.0096,0.0088,0.0097,0.0109,0.0097,0.0097,0.0069,0.0065,0.006,0.0035,0.0033,0.0041,0.004,0.004,0.0039,0,0,0,0,0,0,0,0.013,0.013,0.0131,0.0133,0.0131,0.0113,0.0112,0.0095,0.0088,0.0108,0.0106,0.0104,0.0068,0.0061,0.0058,0.0032,0.0042,0.004,0.0039,0.0038,0.0005,0.0005,0,0,0,0,0,0,0.0137,0.0131,0.0132,0.013,0.013,0.0113,0.0112,0.0116,0.0089,0.0085,0.0105,0.0104,0.0065,0.006,0.0057,0.0061,0.004,0.0038,0.0037,0.0005,0.0005,0.0006,0,0,0,0,0,0,0.0138,0.0138,0.0133,0.013,0.0128,0.0114,0.0118,0.0115,0.0113,0.0087,0.0083,0.0106,0.0064,0.0059,0.0049,0.0058,0.0037,0.0035,0.0005,0.0005,0.0005,0.0057,0,0,0,0,0,0,0.0138,0.0138,0.0144,0.0131,0.0129,0.0132,0.0118,0.0115,0.0112,0.0111,0.0087,0.0082,0.0064,0.0052,0.0048,0.0055,0.0034,0.0004,0.0005,0.0005,0.0055,0.0059,0.0063,0,0,0,0,0,0.0138,0.0149,0.0145,0.0145,0.0138,0.0133,0.013,0.0119,0.0113,0.0116,0.01,0.0083,0.0051,0.0051,0.0045,0.0053,0.0004,0.0005,0.0005,0.0053,0.0058,0.0062,0,0,0,0,0,0,0.0148,0.0147,0.0143,0.0153,0.0147,0.013,0.0132,0.0123,0.0113,0.0112,0.0087,0.0081,0.0074,0.0056,0.0056,0.0043,0.0024,0.0024,0.0063,0.0067,0.0071,0.0087,0.0032,0,0,0,0,0,0.0154,0.0164,0.0156,0.0163,0.0162,0.0148,0.0144,0.0137,0.0126,0.0121,0.0105,0.0086,0.0071,0.0064,0.0046,0.0041,0.0018,0.0041,0.0045,0.0048,0.0057,0.0029,0.0031,0.0007,0.0007,0.0007,0,0,0.016,0.016,0.0165,0.0166,0.0159,0.0167,0.0146,0.0145,0.0152,0.0117,0.0121,0.0098,0.0072,0.0066,0.0062,0.0054,0.0042,0.0049,0.0052,0.0059,0.003,0.0032,0.0034,0.0008,0.0007,0.0007,0,0,0.0177,0.0177,0.0191,0.0191,0.0188,0.0182,0.0185,0.0174,0.0169,0.0167,0.0144,0.013,0.0107,0.0093,0.0081,0.0095,0.0061,0.0086,0.012,0.0093,0.0095,0.0097,0.0068,0.0067,0.009,0.009,0.009,0,0.0183,0.0203,0.0193,0.0207,0.0214,0.0193,0.0212,0.0203,0.019,0.0191,0.0176,0.0146,0.0121,0.0117,0.0121,0.0104,0.0082,0.0107,0.0099,0.01,0.01,0.0071,0.0068,0.0093,0.0092,0.0092,0.0092,0,0.0213,0.0229,0.0237,0.0253,0.0257,0.0268,0.026,0.026,0.0249,0.0242,0.0234,0.0198,0.0183,0.0169,0.0149,0.0144,0.0124,0.0106,0.009,0.0106,0.0074,0.007,0.0096,0.0095,0.0095,0.0094,0,0,0.023,0.0255,0.0259,0.0279,0.0285,0.0295,0.0304,0.0311,0.0328,0.0299,0.0312,0.0276,0.0256,0.0242,0.021,0.0185,0.0164,0.0152,0.015,0.013,0.0103,0.0085,0.0079,0.0144,0.0144,0.0144,0.0078,0,0.0258,0.0301,0.0304,0.0345,0.0369,0.0359,0.0376,0.0377,0.037,0.0375,0.0331,0.033,0.0284,0.0281,0.0247,0.0189,0.0158,0.0184,0.0086,0.0083,0.007,0.0075,0.0143,0.0075,0.0074,0.0074,0.0073,0,0.0288,0.0317,0.0365,0.0405,0.0415,0.0435,0.0464,0.0478,0.0472,0.0467,0.0449,0.0414,0.0378,0.0333,0.024,0.0259,0.0188,0.0134,0.013,0.0095,0.0059,0.0055,0.0067,0.0067,0.0068,0.0068,0.0069,0,0.0314,0.036,0.0404,0.0417,0.0455,0.0475,0.0497,0.0508,0.054,0.053,0.0543,0.0486,0.0469,0.0372,0.0256,0.025,0.0146,0.0121,0.0035,0.0033,0.0046,0.0045,0.0051,0.0051,0.0052,0.0052,0.0052,0,0.0345,0.0381,0.0423,0.0448,0.0509,0.052,0.0584,0.059,0.062,0.0664,0.06,0.0609,0.0478,0.0399,0.028,0.0151,0.0161,0.0045,0.0017,0.0068,0.0071,0.0043,0.0043,0.0049,0.005,0.005,0.0051,0,0.0365,0.039,0.0447,0.05,0.0523,0.0569,0.0652,0.0701,0.0713,0.0765,0.0766,0.071,0.0607,0.0459,0.0305,0.0196,0.0063,0.0011,0.0081,0.0058,-0.0039,-0.0036,-0.0086,-0.0087,-0.0088,-0.0089,-0.0089,0,0.0379,0.041,0.0488,0.0535,0.0563,0.0639,0.0699,0.0745,0.0802,0.0826,0.0851,0.0773,0.0708,0.0485,0.0319,0.0088,0.0048,-0.0029,-0.004,-0.003,-0.0052,-0.0047,-0.0043,-0.0091,-0.0091,-0.0091,-0.0091,0,0.0407,0.0435,0.0484,0.0579,0.0651,0.0741,0.0824,0.0872,0.0925,0.0935,0.0927,0.0806,0.0687,0.0499,0.0318,0.0149,0.0017,-0.004,-0.0039,-0.0051,-0.0037,-0.0057,-0.0051,-0.0095,-0.0094,-0.0094,-0.0094,0,0.0428,0.0467,0.0535,0.062,0.0717,0.0812,0.0857,0.0922,0.0976,0.0991,0.0989,0.085,0.0778,0.0531,0.0366,0.0195,0.0145,0.0076,0.0069,0.0071,0.0126,0.0167,0.0153,0,0,0,0,0,0.0449,0.0495,0.0574,0.0668,0.0767,0.0826,0.093,0.0969,0.1013,0.1017,0.1007,0.0891,0.0653,0.0558,0.0386,0.0329,0.0103,0.0118,0.0017,-0.0113,-0.011,-0.0074,0,0,0,0,0,0,0.0461,0.0532,0.0571,0.0695,0.0767,0.0882,0.0952,0.0985,0.099,0.1002,0.0888,0.0828,0.0605,0.0749,0.0377,0.0326,0.0233,0.0011,0.0006,-0.0116,-0.0112,-0.0109,-0.0071,0,0,0,0,0]}]]